COSMOS 1823

Satellite information

Favourite Embed

Satellite Type and Status

PAYLOADIN ORBIT

Key statistics

Satellite COSMOS 1823 at a glance.

Uptime

14016

Days in orbit

Revolutions

≈ 12.4

Per day

Orbit

LEO

Low Earth Orbit

Inclination

73.6

Latest

Satellite identification and parameters

Extended collection of information and parameters for COSMOS 1823.

Object identification

Identified? True

Debris? False

Object name: COSMOS 1823

International designator: 1987-020A

Object number (NORAD): 17535

Object ID (CCSDS): 17535

Country: COMMONWEALTH OF INDEPENDENT STATES (CIS)

Current information (Y/N): Y

RCS size: LARGE

Orbital parameters

Period: 116.001 minutes

Inclination: 73.6007 deg

SMA: 7878.937 km

Apoapsis: 1522.917 km

Periapsis: 1478.688 km

RAAN: 148.2415 deg

Eccentricy: 0.0028068

Argument of periapsis: 22.0795 deg

Mean anomaly: 140.4682 deg

Mean motion: 12.41370116 rev/day

Mean motion (dot): -0.00000002 rev/day2

B* drag term: 0.00011126 1/REarth

Two-line elements (TLE)

Creation date: July 5, 2025, 5:45 p.m.

Reference frame: TEME

Reference center: EARTH

Epoch: July 5, 2025, 9:06 a.m. UTC

TLE line 0: 0 COSMOS 1823

TLE line 1: 1 17535U 87020A 25186.37922194 -.00000002 00000-0 11126-3 0 9994

TLE line 2: 2 17535 73.6007 148.2415 0028068 22.0795 140.4682 12.41370116738829

Live tracking on map

Real-time ground track for satellite COSMOS 1823.

In-orbit conjunctions

There are no conjunctions computed for COSMOS 1823, at the moment. Check back to stay up to date, as we update our databases every day.

Go to all conjunctions

Associated space launch

A satellite for the GEO-IK geodetic system

COSMOS 1823 was lifted into orbit during the mission ‘Tsiklon-3 | Geo-IK 9’, on board a Tsiklon-3 space rocket.

The launch took place on Feb. 20, 1987, 4:43 a.m. from 32/2.

For more information about the launch, click the button.

Launch to space Tsiklon-3 | Geo-IK 9
Tsiklon-3 | Geo-IK 9

Agency: N/A

Status: Launch Successful

Launch date: Feb. 20, 1987, 4:43 a.m. UTC

Rocket: Tsiklon-3

Launch pad: 32/2

Location: Plesetsk Cosmodrome, Russian Federation

...

Latest news about this satellite

There are no fresh news available about this satellite. Check back as we update our databases every day.


Newsletter sign-up

Weekly statistics, charts and insights to help you stay on top of the space industry.